Temperature
20 20 19 19 19 19 21 22 22 22 22 22 22 21 21 20 20 20 20 20 20 19 19 19 19 19 19 19 19 19 19 19 19 19 19 18 18 18 18 18 18 18 18 18 18 18 18 18 18
20 20 20 19 19 20 21 22 22 22 22 22 22 21 20 20 20 20 20 20 20 20 19 19 19 19 19 19 19 19 19 19 19 19 19 19 18 18 18 18 18 18 18 18 18 18 18 18 18
20 20 20 19 20 20 21 22 22 23 23 23 22 21 20 20 20 20 20 20 20 20 19 19 19 19 19 19 19 19 19 19 19 19 19 18 18 18 18 18 18 18 18 18 18 18 18 18 18
20 20 20 20 21 21 22 22 23 23 23 22 21 20 20 20 20 20 20 20 20 20 20 19 19 19 19 19 19 19 19 19 19 19 18 18 18 18 18 18 18 18 18 18 18 18 18 18 18
21 21 20 20 21 22 22 23 23 23 22 22 21 20 20 20 20 20 20 20 20 20 20 19 19 19 19 19 19 19 19 19 19 19 18 18 18 18 18 18 18 18 18 18 18 18 18 18 18
21 20 20 21 22 23 23 23 23 22 22 22 21 20 20 20 21 20 20 20 20 20 20 19 19 19 19 19 19 19 19 19 18 19 18 18 18 18 18 18 18 18 18 18 18 18 18 18 18
21 20 21 21 22 23 23 23 23 22 22 22 21 20 20 20 20 20 20 20 20 20 20 19 19 19 19 19 19 19 19 18 18 18 18 18 18 18 18 18 18 18 18 18 18 18 18 18 18
22 20 21 21 22 23 23 24 23 23 22 22 22 20 20 20 20 20 20 20 20 20 19 19 19 19 19 19 19 19 19 18 18 18 18 18 18 18 18 18 18 18 18 18 18 18 18 18 18
23 20 21 22 22 23 23 23 23 23 22 22 21 21 21 20 20 20 20 19 19 19 19 19 19 19 19 19 19 19 18 18 18 18 18 18 18 18 18 18 18 18 18 18 18 18 18 18 18
22 20 22 23 23 23 23 23 23 22 22 21 21 21 21 20 20 20 20 20 20 20 19 19 19 19 19 19 18 18 18 18 18 18 18 18 18 18 18 18 18 18 18 18 18 18 18 18 18
22 22 23 23 24 24 23 23 23 22 21 21 21 21 20 20 20 20 20 20 20 20 19 19 19 19 19 19 18 18 18 18 18 18 18 18 18 18 18 18 18 18 18 18 18 18 18 18 18
22 23 24 24 24 24 23 23 23 22 22 23 22 21 21 20 20 20 20 20 20 20 19 19 19 19 19 19 18 18 18 18 18 18 18 18 18 18 18 18 18 18 18 18 18 18 18 18 18
23 23 24 24 24 24 24 23 22 22 22 22 22 21 20 20 20 20 20 20 20 20 19 19 19 19 19 18 18 18 18 18 18 18 18 18 18 18 18 18 18 18 18 18 18 18 18 18 18
24 23 24 24 24 24 23 23 22 21 22 21 21 21 20 20 20 20 20 20 20 20 19 19 19 19 19 18 18 18 18 18 18 18 18 18 18 18 18 18 18 18 18 18 18 18 18 18 18
24 23 23 24 24 24 24 22 22 22 21 21 20 20 20 20 20 20 20 20 20 20 19 19 19 19 18 18 18 18 18 18 18 18 18 18 18 18 18 18 18 18 18 18 18 18 18 18 18
24 23 23 24 24 24 23 22 22 21 21 20 20 20 20 20 20 20 20 20 20 20 19 19 19 19 18 18 18 18 18 18 18 18 18 18 18 18 18 18 18 18 18 18 18 18 18 18 18
23 23 23 24 24 24 23 22 21 21 21 20 20 20 20 20 20 20 20 20 20 20 19 19 19 19 18 18 18 18 18 18 18 18 18 18 18 18 18 18 18 18 18 18 18 18 18 18 18
23 23 23 23 24 23 22 21 21 21 21 20 20 20 20 20 20 20 20 20 20 20 19 19 19 19 18 18 18 18 18 18 18 18 18 18 18 17 17 18 18 18 18 18 18 18 18 18 18
24 23 23 23 24 23 22 22 21 21 20 20 20 20 20 20 20 20 20 20 20 20 20 19 19 19 18 18 18 18 18 18 18 18 18 18 17 17 17 17 17 17 18 18 18 18 18 18 17
24 23 23 23 23 23 22 22 21 21 20 21 20 20 20 20 20 20 20 20 20 20 19 19 19 19 18 18 18 18 18 18 18 18 18 17 17 17 17 17 17 17 17 17 17 17 17 17 17
24 23 23 23 23 22 22 22 21 21 21 21 21 21 20 20 20 20 20 20 20 20 19 19 19 19 18 18 18 18 18 18 18 17 17 17 17 17 17 17 17 17 17 17 17 17 17 17 17
24 24 24 23 22 21 22 21 21 20 20 20 20 21 20 20 20 20 20 20 20 20 19 19 19 19 18 18 18 18 17 18 18 17 17 17 17 17 17 17 17 17 17 17 17 17 17 17 17
24 24 23 22 21 20 21 20 20 20 20 20 20 21 21 21 20 20 20 20 20 20 19 19 19 19 18 18 18 17 17 17 17 17 17 17 17 17 17 17 17 17 17 17 17 17 17 17 17
24 22 21 19 19 20 20 20 20 19 20 20 20 20 21 20 20 20 20 20 20 20 19 19 19 18 18 18 18 17 17 17 17 17 17 17 17 17 17 17 17 17 17 17 17 17 17 17 17
23 21 21 21 19 20 20 20 20 20 20 20 20 21 21 21 20 20 20 20 20 19 19 19 19 18 18 18 18 17 17 17 17 17 17 17 17 17 17 17 17 17 17 17 17 17 17 17 17
22 21 21 21 20 19 20 20 20 21 21 21 21 21 21 21 20 20 20 20 20 19 19 19 19 18 18 18 18 17 17 17 17 17 17 17 17 17 17 17 17 17 17 16 16 16 17 16 16
22 20 20 19 19 19 19 19 20 20 20 20 20 20 20 20 20 20 20 20 19 19 19 19 18 18 18 18 17 17 17 17 17 17 17 17 17 17 17 17 16 16 16 16 16 16 16 16 16
22 19 18 18 19 20 20 20 19 20 20 20 19 20 20 20 20 20 20 20 19 19 19 18 18 18 18 18 17 17 17 17 17 17 17 17 16 16 16 16 16 16 16 16 16 16 16 16 16
22 20 17 16 18 19 20 20 20 19 19 19 19 20 21 21 20 20 20 20 19 19 19 18 18 18 18 17 17 17 17 17 17 17 17 16 16 16 16 16 16 16 16 16 16 16 15 15 16
22 20 18 20 18 17 18 19 21 19 19 19 19 20 21 21 21 20 20 19 19 18 18 18 18 18 18 17 17 17 17 17 16 16 16 16 16 16 16 16 16 16 16 15 15 15 15 15 15
Wind_Speed
7 6 3 1 2 4 2 2 1 3 3 3 5 6 6 4 2 3 0 4 4 4 5 8 9 10 11 12 12 12 13 13 12 12 12 12 12 12 11 10 10 10 10 10 10 11 11 10 10
6 5 2 1 4 3 3 2 3 3 4 4 5 6 6 4 3 4 2 2 5 5 6 7 10 11 11 11 11 11 12 12 11 11 11 11 11 11 10 9 10 10 9 10 10 10 9 9 9
6 3 1 3 3 2 1 0 4 4 4 3 4 5 4 3 3 2 2 5 5 5 6 7 10 11 10 10 10 10 11 11 11 10 10 10 10 10 9 9 9 8 9 9 9 8 8 8 8
3 1 2 4 2 1 2 2 4 5 4 5 4 5 3 2 3 3 6 6 6 4 5 7 10 10 10 9 9 9 9 9 9 9 9 9 9 8 8 8 8 7 7 8 8 8 7 8 8
1 2 4 3 2 1 1 2 3 4 3 4 5 5 3 3 6 8 7 7 6 4 5 6 10 9 9 9 9 8 9 9 9 9 8 8 7 7 7 7 6 6 6 6 6 7 7 7 6
2 3 4 2 3 2 1 2 3 5 5 4 5 4 2 2 6 6 6 5 5 5 4 5 7 9 9 8 8 8 8 8 8 8 7 7 7 6 6 6 5 5 5 4 4 5 5 5 5
3 3 2 1 1 2 1 2 3 4 4 3 4 4 2 2 4 6 6 5 4 4 4 3 4 6 7 7 7 8 8 7 7 6 6 6 5 5 4 4 4 4 3 3 3 2 4 4 4
3 3 2 1 1 0 1 2 3 4 3 4 4 5 4 4 6 7 6 5 4 3 3 2 3 4 4 4 6 7 7 6 5 5 5 4 4 3 3 3 3 2 2 1 1 1 2 2 2
3 3 0 2 2 1 2 3 2 3 5 3 3 3 5 10 10 8 6 4 3 3 2 2 2 2 3 3 4 5 5 4 3 3 3 3 2 1 2 2 1 1 0 0 1 0 1 1 1
3 2 3 3 3 3 3 3 4 4 4 3 5 7 10 11 10 9 7 5 4 3 2 2 2 2 2 2 2 3 3 3 3 2 2 2 2 1 1 0 0 1 2 2 1 0 0 1 1
3 3 2 1 2 3 3 3 3 6 2 3 6 10 12 11 9 8 6 5 4 3 3 2 2 2 2 2 2 2 2 3 3 2 3 3 3 2 2 2 2 3 3 3 2 1 1 1 1
2 2 2 2 2 2 3 3 4 3 2 5 9 12 12 11 9 8 7 5 4 3 3 2 2 2 2 2 2 2 2 2 2 2 2 3 2 2 2 1 2 2 2 2 2 1 1 1 1
1 0 1 1 2 3 4 4 4 2 4 8 10 11 11 10 8 5 5 4 4 4 3 3 3 3 2 2 1 2 2 2 2 1 2 2 2 0 1 1 1 1 1 1 1 1 1 1 1
2 2 2 2 2 2 5 4 4 2 6 9 10 9 8 8 7 4 4 4 4 4 4 3 3 3 3 2 2 1 2 2 2 1 1 1 2 1 0 0 1 1 1 1 0 0 1 1 1
3 3 4 2 1 2 6 4 1 3 8 8 8 7 6 5 5 5 5 5 5 4 3 3 3 3 3 3 2 2 2 2 1 1 0 0 1 1 1 0 1 1 0 0 1 1 1 0 0
3 3 1 2 1 2 5 1 1 5 8 7 6 6 5 4 5 5 5 4 4 3 3 2 3 3 3 2 2 2 2 2 1 1 1 1 1 1 1 0 1 1 0 1 0 0 0 1 0
3 1 1 2 1 2 4 3 2 5 7 6 5 4 4 3 3 4 4 5 5 4 4 3 3 3 3 3 2 2 2 1 1 1 1 1 1 1 1 1 1 0 1 0 0 0 1 0 0
3 2 2 2 1 3 3 2 3 5 7 6 5 4 4 5 5 5 4 5 5 4 4 4 3 3 3 2 1 1 1 0 0 1 1 1 1 1 1 1 1 0 0 0 1 1 1 1 1
3 2 1 3 2 2 2 3 4 5 5 5 5 5 5 5 4 4 4 5 5 5 5 5 4 3 3 2 2 1 1 1 0 1 2 2 2 1 1 1 0 0 1 1 1 1 1 0 1
4 2 1 2 1 2 1 2 3 6 7 7 7 7 7 4 3 4 4 4 5 5 5 4 4 4 4 3 2 2 2 1 1 1 1 2 2 2 2 1 1 1 1 1 1 1 1 0 1
2 5 4 3 2 3 3 4 2 3 4 4 5 6 6 7 6 6 6 6 5 6 6 5 5 4 3 3 2 2 2 1 1 1 1 2 2 2 2 2 1 1 2 2 2 2 3 2 1
4 6 6 4 3 1 2 2 6 2 3 5 6 6 7 6 6 6 6 6 6 6 5 4 4 4 3 4 3 3 3 2 2 2 1 2 2 2 2 2 2 1 2 2 3 2 2 3 2
4 2 4 3 3 2 2 1 7 2 3 6 7 7 6 7 7 7 8 7 6 5 5 4 3 3 3 4 5 4 3 3 1 1 1 2 2 2 2 2 2 2 2 2 2 2 2 2 3
5 7 7 6 5 1 2 3 6 3 5 4 5 6 6 5 5 6 6 5 4 4 4 4 4 3 3 4 4 5 5 3 2 2 2 2 2 2 2 2 2 2 2 2 2 2 3 3 3
5 6 4 4 3 4 2 3 7 6 5 5 5 5 5 5 5 5 6 6 5 5 5 4 5 4 4 4 5 5 5 5 5 4 3 3 2 2 3 2 2 2 2 2 2 2 2 3 3
4 8 7 5 5 4 1 4 6 5 3 2 2 2 3 4 4 5 6 6 6 6 5 5 5 5 4 4 4 4 4 4 4 4 4 4 3 3 3 2 2 2 2 2 1 2 2 2 2
5 3 6 7 2 1 4 6 6 2 3 2 0 2 3 4 4 5 5 5 5 5 5 5 5 4 4 4 4 4 4 4 4 3 3 3 3 3 2 2 2 2 2 2 1 1 2 2 2
5 7 6 6 5 3 4 4 5 5 5 3 2 2 3 3 4 4 4 5 4 4 4 3 3 4 4 4 4 4 3 3 3 3 3 3 3 2 2 1 2 2 2 2 1 2 2 2 2
3 4 5 4 4 6 4 6 5 6 5 4 4 4 4 4 5 5 4 4 4 3 3 3 3 2 2 3 3 3 2 2 2 2 3 3 2 2 2 2 2 2 2 2 2 2 2 2 2
3 5 6 4 3 4 4 7 3 2 3 2 3 3 3 4 4 4 4 4 3 3 3 3 3 3 3 2 2 2 2 1 2 2 2 1 1 2 2 1 1 2 2 2 2 2 2 2 2
Wind_Direction
166 152 149 145 53 47 8 330 14 69 62 48 76 89 99 91 114 136 34 117 118 121 133 138 132 129 128 129 128 127 126 125 126 126 128 129 132 131 129 133 137 137 137 140 142 141 141 141 141
152 159 174 64 70 51 335 325 58 74 125 124 76 73 75 65 67 103 115 126 121 125 128 136 134 129 128 128 127 127 127 126 126 125 127 129 131 132 132 133 138 138 143 144 144 143 145 146 146
167 190 104 68 73 142 224 345 108 104 99 83 75 60 77 95 106 134 158 132 112 113 125 139 137 134 132 129 127 126 126 127 126 127 128 128 129 132 133 135 138 139 144 148 147 149 149 151 153
170 138 56 59 38 277 194 169 137 119 70 55 87 71 60 61 127 137 129 124 113 108 124 142 141 139 137 135 132 129 130 131 130 128 127 126 127 130 130 133 137 138 142 148 152 158 158 157 158
118 75 53 35 355 333 125 154 128 106 87 71 86 91 55 29 96 114 122 123 120 113 120 139 143 145 142 136 131 127 129 132 132 128 124 126 126 127 128 127 129 131 137 149 162 165 164 162 159
64 62 66 21 348 2 73 101 96 89 93 91 89 94 61 80 107 118 119 120 116 116 112 125 145 148 144 138 132 129 129 130 134 131 129 129 127 127 126 125 127 134 141 142 158 163 163 162 161
90 75 94 112 352 11 118 102 107 114 106 103 112 98 81 113 120 116 110 105 106 116 114 110 128 144 140 138 137 134 132 130 131 133 135 135 129 128 130 126 127 132 135 133 130 146 169 168 162
125 89 50 55 126 219 144 105 108 115 111 110 107 130 165 168 126 105 93 87 91 99 100 105 112 126 134 140 140 139 136 136 136 140 142 140 132 131 137 133 131 130 137 151 145 149 161 169 166
108 72 119 207 175 194 146 117 111 89 107 105 106 139 146 134 122 108 97 85 104 127 95 91 99 117 135 145 145 136 136 132 130 137 136 125 110 124 148 142 148 170 181 231 207 182 154 142 139
96 122 226 206 178 163 143 133 133 105 99 83 82 91 118 130 135 138 145 154 156 153 139 112 125 127 130 142 121 112 120 107 103 91 87 90 84 71 86 122 227 324 338 340 328 233 165 352 344
143 189 238 215 179 149 139 129 116 132 148 182 153 139 138 141 145 153 163 167 166 155 155 155 156 145 139 131 129 111 106 103 99 91 85 82 66 36 27 19 358 349 352 354 1 14 4 349 326
155 250 204 188 149 145 144 129 105 124 185 146 145 144 145 152 161 169 172 173 154 140 165 150 151 147 152 151 144 131 122 118 119 120 110 97 72 35 26 26 9 2 356 5 359 5 359 340 313
154 326 44 106 104 131 117 107 108 80 96 111 126 139 151 159 166 168 161 162 154 164 181 171 157 152 151 148 164 138 142 151 155 137 125 126 112 39 6 21 19 359 356 5 359 353 356 332 313
132 97 44 58 73 104 112 86 96 124 118 121 132 148 164 167 165 152 149 158 173 179 181 167 156 160 151 149 157 155 157 159 150 149 154 163 172 170 184 342 357 354 333 288 311 335 346 330 310
92 65 30 20 30 111 107 58 97 147 128 132 143 152 160 167 164 170 179 177 178 178 167 159 163 143 143 149 159 154 162 152 147 175 198 224 220 196 180 152 331 315 307 354 36 20 20 330 1
48 61 40 304 119 114 114 175 205 140 136 142 153 159 162 173 176 178 175 172 175 166 161 173 173 147 148 153 163 152 159 155 176 197 237 280 269 212 163 177 280 276 102 87 115 81 23 352 1
39 80 261 291 241 119 130 194 183 150 149 159 168 175 171 173 181 181 178 178 176 173 168 172 169 156 163 159 160 152 149 159 188 180 218 264 270 232 193 220 275 301 93 91 236 107 168 203 254
223 207 227 245 258 107 140 198 168 165 163 170 175 180 182 193 204 194 182 176 173 171 165 169 171 162 158 146 132 116 106 118 151 179 222 232 248 236 202 228 287 131 113 205 192 175 177 194 207
174 166 230 268 202 121 188 209 194 173 174 178 185 191 204 216 209 190 182 176 172 169 169 174 172 168 153 151 159 157 189 198 215 245 244 247 257 249 206 251 345 143 185 227 211 164 146 166 162
153 160 233 309 48 143 175 244 206 183 196 195 195 199 207 211 194 187 182 177 176 180 186 178 182 181 175 178 173 167 166 186 196 248 265 257 248 249 230 211 217 178 178 279 238 169 154 169 156
213 189 197 193 25 43 63 335 270 236 210 204 200 202 204 202 199 196 190 189 184 189 191 189 185 183 182 166 136 111 76 40 352 287 279 269 252 244 236 221 209 205 192 219 231 196 183 199 222
235 218 175 158 116 313 94 282 291 263 235 223 226 216 215 212 202 197 196 195 195 198 190 183 176 176 178 159 153 162 177 202 225 226 248 280 264 255 242 232 226 226 216 223 238 218 198 186 222
202 135 121 121 124 53 31 147 290 328 265 249 237 227 222 214 205 201 200 197 192 186 180 183 169 176 182 176 177 180 197 209 215 211 247 273 287 277 264 239 234 244 242 239 243 229 210 205 216
127 74 57 49 69 1 251 172 278 253 239 259 240 221 217 212 205 199 195 179 175 173 170 172 172 195 197 191 191 191 197 199 201 222 234 261 277 281 277 255 250 255 253 249 244 236 225 232 231
94 95 45 2 6 251 250 182 250 256 235 228 237 225 208 202 192 187 180 178 181 181 183 183 181 201 205 201 205 205 204 200 205 217 224 235 255 264 268 264 254 255 255 253 245 241 244 240 230
164 140 157 195 220 267 293 232 252 267 264 261 242 190 169 181 185 184 185 182 187 189 189 191 191 202 206 209 215 211 203 205 216 219 220 225 237 246 253 246 247 254 260 265 250 251 260 254 238
139 150 156 135 135 245 276 282 297 288 306 315 51 123 163 177 181 182 179 177 182 187 192 194 194 201 207 211 213 211 207 207 215 221 218 230 241 247 243 240 248 263 268 265 247 260 275 264 248
122 139 100 117 150 233 279 271 255 256 258 265 250 203 189 178 182 182 182 184 186 189 187 181 181 197 209 210 215 220 215 211 209 206 217 231 242 247 237 249 256 264 268 266 250 260 262 245 253
89 89 99 112 150 163 235 266 232 220 223 226 237 228 202 191 190 190 188 186 180 175 177 185 187 194 209 211 209 214 212 211 209 218 229 236 243 234 231 244 253 259 263 261 255 260 248 244 259
140 147 145 154 206 179 186 259 292 210 227 220 242 243 219 204 194 184 175 168 171 182 186 192 189 194 214 210 191 204 205 201 215 230 236 235 248 252 236 229 241 256 263 258 248 258 262 246 255
Height
1490 1490 1491 1493 1495 1502 1504 1497 1491 1490 1491 1491 1491 1491 1493 1497 1500 1505 1501 1500 1500 1501 1501 1502 1503 1504 1505 1506 1507 1508 1509 1510 1511 1512 1513 1514 1515 1516 1517 1518 1518 1519 1521 1522 1524 1525 1527 1528 1530
1490 1491 1493 1494 1501 1512 1507 1495 1493 1491 1492 1492 1492 1494 1495 1497 1498 1500 1500 1501 1502 1502 1503 1504 1505 1506 1507 1508 1510 1510 1511 1513 1513 1514 1515 1516 1517 1518 1518 1518 1519 1520 1521 1523 1524 1526 1527 1529 1531
1491 1492 1494 1496 1503 1510 1504 1494 1492 1492 1492 1492 1494 1496 1497 1499 1500 1501 1502 1502 1503 1504 1505 1506 1507 1508 1509 1510 1512 1513 1514 1515 1515 1516 1517 1518 1518 1519 1520 1520 1520 1521 1521 1523 1525 1526 1528 1530 1531
1492 1494 1495 1500 1504 1500 1496 1493 1492 1492 1493 1494 1495 1498 1500 1502 1502 1503 1503 1504 1505 1506 1507 1508 1509 1510 1511 1513 1514 1515 1516 1517 1517 1518 1519 1519 1520 1521 1521 1522 1522 1522 1523 1524 1525 1527 1529 1530 1532
1493 1494 1499 1505 1503 1497 1494 1493 1493 1493 1495 1496 1497 1500 1502 1504 1504 1505 1505 1506 1507 1508 1509 1510 1511 1512 1513 1514 1515 1516 1517 1518 1519 1520 1521 1521 1522 1522 1522 1523 1524 1524 1524 1525 1526 1527 1529 1530 1532
1494 1495 1506 1511 1504 1497 1494 1494 1495 1495 1497 1498 1499 1501 1504 1505 1506 1507 1508 1509 1510 1510 1511 1512 1513 1514 1515 1516 1517 1518 1519 1520 1521 1522 1523 1523 1524 1524 1524 1525 1525 1526 1526 1527 1527 1528 1529 1530 1533
1496 1499 1506 1507 1505 1500 1496 1496 1496 1497 1498 1499 1500 1503 1505 1506 1508 1508 1509 1511 1512 1512 1513 1514 1515 1516 1517 1518 1519 1520 1521 1522 1523 1524 1524 1525 1526 1526 1526 1526 1527 1527 1528 1528 1528 1529 1529 1532 1533
1495 1500 1505 1505 1504 1501 1496 1497 1498 1498 1499 1501 1502 1503 1505 1507 1508 1510 1511 1512 1513 1514 1515 1516 1517 1518 1519 1520 1521 1522 1523 1524 1525 1525 1526 1526 1527 1527 1528 1528 1528 1529 1529 1529 1530 1530 1531 1532 1533
1496 1504 1509 1505 1503 1499 1496 1497 1499 1500 1501 1502 1502 1504 1505 1507 1509 1511 1512 1513 1514 1515 1517 1518 1519 1520 1521 1522 1523 1524 1525 1526 1526 1527 1527 1528 1528 1529 1529 1530 1530 1530 1530 1530 1530 1531 1532 1533 1534
1497 1506 1502 1497 1496 1496 1496 1497 1499 1501 1502 1503 1504 1505 1506 1508 1510 1511 1513 1514 1515 1517 1518 1519 1521 1522 1523 1524 1525 1525 1526 1527 1527 1528 1529 1529 1529 1530 1530 1531 1531 1532 1531 1531 1531 1532 1533 1534 1535
1497 1500 1496 1494 1494 1495 1496 1498 1499 1501 1503 1503 1503 1505 1507 1509 1511 1512 1514 1515 1517 1518 1520 1521 1522 1523 1524 1525 1526 1526 1527 1528 1528 1529 1530 1530 1530 1531 1532 1532 1532 1532 1533 1532 1533 1533 1534 1535 1536
1497 1496 1494 1494 1494 1495 1497 1498 1500 1501 1502 1503 1504 1505 1507 1509 1511 1513 1514 1516 1518 1519 1520 1521 1522 1524 1525 1526 1527 1527 1528 1529 1529 1530 1531 1531 1531 1532 1533 1533 1533 1533 1533 1534 1534 1534 1535 1536 1536
1496 1496 1495 1494 1495 1496 1497 1499 1501 1503 1503 1504 1506 1508 1509 1510 1512 1514 1516 1517 1519 1520 1521 1522 1523 1524 1525 1526 1527 1528 1529 1530 1530 1531 1531 1532 1532 1533 1533 1534 1534 1534 1534 1534 1535 1535 1536 1536 1537
1496 1496 1496 1496 1496 1497 1498 1501 1502 1504 1504 1505 1506 1508 1510 1511 1513 1515 1516 1518 1519 1520 1522 1523 1524 1525 1526 1526 1527 1528 1529 1530 1531 1531 1532 1532 1533 1533 1534 1534 1534 1534 1535 1535 1535 1535 1536 1536 1537
1496 1498 1499 1498 1497 1499 1500 1505 1504 1504 1505 1506 1508 1509 1511 1513 1514 1515 1517 1518 1519 1521 1522 1523 1524 1525 1526 1527 1528 1529 1529 1530 1531 1531 1532 1532 1533 1533 1534 1534 1534 1534 1535 1535 1535 1535 1536 1536 1536
1498 1503 1508 1501 1498 1499 1504 1513 1505 1505 1506 1507 1509 1510 1512 1513 1515 1516 1518 1519 1520 1521 1522 1523 1524 1525 1526 1527 1528 1529 1530 1530 1531 1531 1532 1532 1533 1533 1533 1533 1534 1534 1535 1535 1535 1535 1535 1535 1535
1506 1513 1511 1505 1499 1499 1504 1510 1506 1506 1506 1508 1510 1511 1512 1513 1514 1516 1517 1518 1520 1521 1522 1523 1524 1525 1526 1527 1528 1529 1529 1530 1531 1531 1532 1532 1532 1533 1533 1533 1533 1534 1534 1534 1534 1534 1534 1534 1535
1513 1512 1511 1509 1502 1502 1506 1508 1505 1505 1506 1508 1509 1511 1512 1512 1513 1515 1516 1518 1519 1520 1521 1522 1523 1524 1525 1526 1527 1528 1529 1529 1530 1531 1531 1531 1532 1532 1532 1532 1532 1532 1532 1533 1533 1533 1533 1533 1534
1501 1507 1510 1506 1500 1504 1507 1507 1505 1505 1506 1507 1509 1510 1510 1511 1513 1514 1515 1517 1518 1519 1520 1520 1522 1523 1524 1525 1526 1527 1527 1528 1529 1530 1530 1530 1531 1531 1531 1531 1531 1531 1531 1531 1531 1532 1532 1532 1532
1501 1508 1509 1505 1500 1504 1508 1507 1504 1503 1504 1505 1506 1507 1508 1510 1511 1512 1514 1515 1516 1517 1518 1519 1520 1521 1522 1523 1525 1526 1526 1527 1528 1528 1528 1529 1529 1529 1529 1529 1529 1529 1530 1530 1530 1530 1530 1530 1531
1501 1506 1506 1507 1504 1504 1507 1511 1506 1503 1503 1504 1505 1505 1506 1507 1508 1509 1511 1512 1514 1515 1516 1517 1518 1520 1521 1523 1523 1524 1525 1525 1526 1526 1527 1527 1528 1528 1528 1528 1528 1528 1528 1528 1528 1528 1528 1528 1529
1504 1495 1498 1503 1512 1519 1514 1528 1511 1505 1503 1502 1502 1503 1503 1505 1506 1507 1508 1510 1511 1513 1515 1516 1517 1519 1520 1521 1521 1522 1522 1523 1523 1524 1525 1526 1526 1526 1526 1526 1526 1526 1526 1526 1526 1526 1526 1527 1527
1495 1492 1497 1503 1512 1521 1519 1527 1519 1507 1506 1501 1499 1500 1501 1502 1504 1504 1506 1508 1510 1511 1513 1514 1516 1517 1518 1519 1520 1520 1521 1521 1522 1523 1523 1523 1524 1524 1524 1523 1523 1523 1524 1524 1524 1524 1524 1524 1524
1490 1497 1503 1512 1520 1533 1524 1528 1524 1512 1504 1499 1496 1497 1498 1499 1501 1502 1504 1506 1508 1510 1511 1513 1514 1514 1516 1517 1517 1518 1518 1519 1519 1520 1520 1521 1521 1521 1521 1521 1521 1521 1521 1521 1521 1521 1521 1522 1521
1493 1510 1529 1532 1540 1536 1522 1524 1519 1501 1496 1495 1494 1494 1495 1497 1498 1499 1501 1503 1505 1507 1508 1510 1511 1512 1513 1514 1515 1515 1516 1517 1517 1517 1518 1518 1518 1519 1519 1519 1519 1519 1519 1519 1519 1519 1519 1519 1518
1496 1504 1527 1538 1541 1535 1523 1524 1509 1495 1493 1492 1493 1492 1493 1495 1496 1497 1499 1501 1503 1505 1506 1508 1508 1510 1511 1512 1513 1513 1514 1514 1515 1515 1516 1516 1516 1516 1516 1516 1516 1516 1516 1516 1516 1516 1516 1516 1516
1496 1504 1505 1524 1531 1535 1528 1517 1503 1493 1492 1491 1491 1491 1492 1493 1494 1496 1497 1499 1501 1503 1504 1505 1506 1508 1509 1510 1510 1511 1511 1512 1512 1513 1513 1513 1513 1514 1514 1514 1514 1513 1513 1513 1513 1513 1512 1513 1513
1489 1499 1512 1524 1537 1539 1528 1521 1514 1499 1495 1492 1491 1491 1491 1492 1494 1495 1496 1497 1499 1501 1502 1503 1505 1506 1507 1507 1508 1508 1509 1509 1510 1510 1510 1511 1511 1511 1511 1511 1511 1511 1510 1510 1510 1509 1509 1509 1509
1495 1502 1511 1523 1524 1534 1536 1523 1496 1494 1492 1491 1490 1490 1490 1491 1492 1493 1494 1496 1497 1499 1500 1501 1502 1503 1504 1505 1505 1506 1506 1507 1507 1508 1508 1508 1509 1509 1508 1508 1508 1508 1508 1507 1507 1506 1506 1506 1506
1489 1496 1507 1517 1523 1527 1529 1519 1489 1490 1489 1489 1489 1490 1490 1491 1491 1492 1493 1494 1495 1497 1498 1499 1500 1501 1502 1502 1503 1503 1504 1504 1505 1505 1505 1506 1506 1506 1506 1506 1505 1505 1505 1504 1504 1503 1503 1503 1503